Location: Byszew
(52.1813°N, 19.2693°E)
Time: 00:33:32
(UTC+00:00)

Cosmos 2322 Rocket - Pass Details

Date: 02 July 2021
Orbit: 833 x 850 km, 71.0° (Epoch: 29 July)

Event Time Altitude Azimuth Distance (km) Brightness Sun altitude
Rises 23:04:50 0° 326° (NNW) 3,423 6.2 -14.8°
Reaches altitude 10° 23:08:08 10° 345° (NNW) 2,482 5.8 -14.7°
Maximum altitude 23:11:59 18° 28° (NNE) 1,959 5.1 -14.7°
Drops below altitude 10° 23:15:49 10° 71° (ENE) 2,469 5.0 -14.6°
Sets 23:19:05 0° 90° (E) 3,398 5.4 -14.5°
